Location: ?????
(32.7281°N, 34.9563°E)
Time: 18:17:47
(UTC+00:00)

SAR-Lupe-4 - Pass Details

Date: 29 October 2020
Orbit: 481 x 484 km, 98.2° (Epoch: 22 November)

Event Time Altitude Azimuth Distance (km) Brightness Sun altitude
Rises 15:33:07 0° 10° (N) 2,545 7.0 -9.3°
Reaches altitude 10° 15:35:12 10° 9° (N) 1,662 6.1 -9.7°
Maximum altitude 15:38:45 75° 284° (WNW) 501 3.7 -10.5°
Drops below altitude 10° 15:42:17 10° 198° (SSW) 1,651 6.6 -11.2°
Sets 15:44:20 0° 197° (SSW) 2,527 7.6 -11.6°
